Regional Weather Roundup
Issued by NWS Charleston, WV

Home | Current Version | Previous Version | Text Only | Print | Product List | Glossary Off
Versions: 1 2 3 4 5 6 7 8 9 10 11 12 13 14 15 16 17 18 19 20 21 22 23 24 25 26 27

000
ASUS41 KRLX 252110
RWRRLX
West Virginia Regional Weather Roundup
National Weather Service Charleston WV
500 PM EDT MON JUL 25 2016

Note: "fair" indicates few or no clouds below 12,000 feet with no
significant weather and/or obstructions to visibility.

WVZ003-252200-
Northern Panhandle of West Virginia

CITY           SKY/WX    TMP DP  RH WIND       PRES   REMARKS
WHEELING         N/A     92  70  48 NW9       29.93S HX  97
$$

WVZ009-252200-
Northwest West Virginia

CITY           SKY/WX    TMP DP  RH WIND       PRES   REMARKS
PARKERSBURG      N/A     90  77  65 VRB6      29.96F HX 103
$$

WVZ006-252200-
Western West Virginia

CITY           SKY/WX    TMP DP  RH WIND       PRES   REMARKS
HUNTINGTON     TSTM      88  74  63 SW8       29.97S HX  96
$$

WVZ015-252200-
West Central West Virginia

CITY           SKY/WX    TMP DP  RH WIND       PRES   REMARKS
CHARLESTON     PTSUNNY   90  72  55 W6        29.97S HX  97
$$

WVZ022-031-252200-
North Central West Virginia

CITY           SKY/WX    TMP DP  RH WIND       PRES   REMARKS
CLARKSBURG       N/A     80  74  81 S6        29.97R
MORGANTOWN       N/A     89  71  55 S10       29.95S
$$

WVZ025-035-042-045-252200-
Southern West Virginia

CITY           SKY/WX    TMP DP  RH WIND       PRES   REMARKS
BECKLEY        PTSUNNY   84  69  60 W6        30.08S
LOGAN            N/A     88  73  62 VRB5      30.02R HX  96
BLUEFIELD        N/A     84  70  62 NW9       30.12S
LEWISBURG        N/A     87  70  57 W6        30.06F
$$

WVZ047-252200-
Northern Mountains of West Virginia

CITY           SKY/WX    TMP DP  RH WIND       PRES   REMARKS
ELKINS         LGT RAIN  81  68  64 NW9       30.06R
$$

WVZ052-252200-
Eastern Panhandle of West Virginia

CITY           SKY/WX    TMP DP  RH WIND       PRES   REMARKS
MARTINSBURG      N/A     89  69  51 S8        29.88R
PETERSBURG       N/A     94  70  45 W7        29.91R HX 100
$$




USA.gov is the U.S. government's official web portal to all federal, state and local government web resources and services.